Find Syracuse 4A

NORAD ID: 49333 Int'l Des: 2021-095 Owner: DGA Country: F operational
HEOCIRCULARGSOGEO

リアルタイム位置

3D地球を読み込み中...

Syracuse 4Aについて

説明を読み込み中...

次回通過

Passes for default location (London). Set your location on the main map for personalized predictions.

高度履歴

Loading altitude history...

軌道要素

1 49333U 21095B 26104.31086691 .00000000 00000-0 00000+0 0 9995
2 49333 0.0198 231.0523 0001510 121.4868 7.3539 1.00269653 17305
Epoch: Apr 14, 2026 • Age: 12 hours

現在のステータス

高度 35792.9 km
速度 3.07 km/s
衛星直下点 -0.03°S, 45.48°E
打ち上げ日 Oct 24, 2021
運用期間 4.4 years
タイプ other

技術仕様

分類 Payload
質量 3852.00 kg
乾燥質量 3200.00 kg
総質量 3852.00 kg
長さ 5.00 m
直径 2.50 m
スパン 30.00 m
形状 Box + 2 Pan
製造者 THALES
バスタイプ Spacebus NEO100
フェーズステータス In Orbit
所有者/国 DGA/F

Most Searched